Showing default

OPS 8480 (TRANSIT 5B-6), 1420

Orbit data source: Space-Track

OPS 8480 (TRANSIT 5B-6), 1420 is a payload satellite owned by USN BuWeps (US) in LEO that was launched on Thu, 24 Jun 1965 UTC via a THOR ABLESTAR launch vehicle from the Air Force Western Test Range (AFWTR). Payload-class satellites include a variety of spacecraft equipped with specific instruments for various scientific and technological missions. These include communications satellites like Starlink; space stations such as the ISS; scientific satellites like the Hubble; Earth observation satellites from companies like Planet Labs, Umbra, and HawkEye 360; GPS; miniature CubeSats for education and research; and military/defense satellites.

Loading next visibility...
Identifier
1420, 1965-048A
Orbit
LEO
Country
Flag of USUS
Related business
Manufacturer
APL
Mission
Spacecraft
Bus & Motor
TRANSIT 5, Unknown motor
Mass
~54 kg wet, ~54 kg dry
Launch date (UTC)
1965-06-24 (60 years ago)
Launch vehicle
THOR ABLESTAR
Launch site
Air Force Western Test Range (AFWTR)
Object type
Payload
Rocket body
Debris
Shape & HBR
Unknown
Radar Cross Section
Large (>1 m²)

Expand to show TLE details & history
Last TLE update: 11 hours ago

TLE from 11 hours ago
0 OPS 8480 (TRANSIT 5B-6)
1 01420U 65048A   25310.19593546  .00000166  00000-0  23503-3 0  9992
2 01420  89.8773 288.9478 0073424 359.0736  11.6864 13.51851462973326
Epoch: 2025-11-06T04:42Z
TLE epoch observation values (Epoch: 2025-11-06T04:42:08.823Z)
Latitude
10.88185°
Longitude
172.77677°
Altitude
1,014.144 km
Speed
7.372 km/s
True Right ascension
19h 15m 53s
True Declination
10° 49' 14"
Sunlit
Object was in daylight at epoch
Visualization orbit readout
Latitude
Unknown
Longitude
Unknown
Altitude
Unknown
Speed
Unknown
Apparent Right ascension
Unknown
Apparent Declination
Unknown
Sunlit
N/A
Visualization observer readout
Local Sidereal Time
11:46:43
Azimuth
Unknown
Elevation
Unknown
Doppler factor
Unknown
Orbital elements
Apogee altitude
1,117.133 km
Perigee altitude
1,007.869 km
Semi-major axis
7,440.638 km
Eccentricity
0.00734
Inclination
89.8773°
RAAN
288.9478°
Arg. of periapsis
359.0736°
True anomaly
11.85837°
Mean anomaly
11.6864°
Eccentric anomaly
11.77223°
Mean motion
3.38164 °/min
Orbital period
106.46 mins
BSTAR
0.00023503
Loading maneuver chart data...
Computing Atmospheric mass density...

Documentation

Showing up to 5 results
|